Location: Vancouver
(49.2500°N, 123.1330°W)
Time: 16:25:44
(UTC-07:00)

ERS-2 - Visible Passes

Search period start: 03 September 2015 00:00
Search period end: 13 September 2015 00:00
Orbit: 514 x 519 km, 98.5° (Epoch: 02 September)

Date Brightness Start Highest point End Pass type
(mag) Time Alt. Az. Time Alt. Az. Time Alt. Az.
03 Sep 5.1 00:34:21 10° NNE 00:35:06 15° NNE 00:35:06 15° NNE visible
04 Sep 5.2 00:19:52 10° NNE 00:20:17 13° NNE 00:20:17 13° NNE visible
04 Sep 5.2 01:54:49 10° NNW 01:55:18 12° NNW 01:55:18 12° NNW visible
05 Sep 5.3 00:05:27 10° NNE 00:05:27 10° NNE 00:05:27 10° NNE visible
05 Sep 5.2 01:39:51 10° NNW 01:40:29 13° NNW 01:40:29 13° NNW visible
06 Sep 5.3 01:25:01 10° N 01:25:39 14° N 01:25:39 14° N visible
07 Sep 5.3 01:10:16 10° N 01:10:49 14° N 01:10:49 14° N visible
08 Sep 5.4 00:55:35 10° N 00:55:59 13° N 00:55:59 13° N visible
09 Sep 5.5 00:40:59 10° NNE 00:41:09 11° NNE 00:41:09 11° NNE visible
12 Sep 5.6 01:31:35 10° N 01:31:36 10° N 01:31:36 10° N visible
